Reno, NV

2:11 AM PDT on August 23, 2017 (GMT -0700)
Reno-Tahoe International

Weather History for KRNO - March, 2013

Change the Weather History Date:

Wednesday, March 20, 2013

  Actual Average Record
Temperature  
Mean Temperature 55 °F 46 °F  
Max Temperature 63 °F 59 °F 81 °F (2004)
Min Temperature 47 °F 34 °F 6 °F (1952)
Degree Days  
Heating Degree Days 10 19  
Month to date heating degree days 309 402  
Since 1 July heating degree days 3793 4040  
Cooling Degree Days 0 0  
Month to date cooling degree days 0 0  
Year to date cooling degree days 0 0  
Growing Degree Days 4 (Base 50)    
Moisture  
Dew Point 32 °F    
Average Humidity 44    
Maximum Humidity 56    
Minimum Humidity 32    
Precipitation  
Precipitation 0.00 in 0.02 in 0.45 in (1995)
Month to date precipitation 0.13 0.56  
Year to date precipitation 0.25 2.61  
Snow  
Snow 0.00 in 0.00 in 3.60 in (1946)
Month to date snowfall 0.1 1.5  
Since 1 July snowfall 9.4 20.5  
Snow Depth 0.00 in    
Sea Level Pressure  
Sea Level Pressure 29.89 in    
Wind  
Wind Speed 13 mph (WSW)    
Max Wind Speed 37 mph    
Max Gust Speed 49 mph    
Visibility 10 miles    
Events      
T = Trace of Precipitation, MM = Missing Value Source: NWS Daily Summary

Daily Weather History Graph

Daily Weather History Graph

Search for Another Location

Airport or City:

Trip Planner

Search our weather history database for the weather conditions in past years. The results will help you decide how hot, cold, wet, or windy it might be!

Date:

Astronomy

Mar. 20, 2013 Rise Set
Actual Time 7:01 AM PDT 7:11 PM PDT
Civil Twilight 6:35 AM PDT 7:38 PM PDT
Nautical Twilight 6:03 AM PDT 8:09 PM PDT
Astronomical Twilight 5:31 AM PDT 8:41 PM PDT
Moon 12:52 PM PDT (3/20) 2:43 AM PDT (3/20)
Length of Visible Light 13h 03m
Length of Day
12h 09m
First Quarter, 60% of the Moon is Illuminated
Mar 20
First Quarter
Mar 27
Full
Apr 2
Last Quarter
Apr 10
New
Apr 18
First Quarter

Hourly Weather History & Observations

Time (PDT) Temp. Dew Point Humidity Pressure Visibility Wind Dir Wind Speed Gust Speed Precip Events Conditions
12:55 AM 50.0 °F 34.0 °F 54% 29.91 in 10.0 mi NNE 11.5 mph - N/A   Mostly Cloudy
1:55 AM 50.0 °F 34.0 °F 54% 29.90 in 10.0 mi NNE 6.9 mph - N/A   Mostly Cloudy
2:55 AM 50.0 °F 33.1 °F 52% 29.90 in 10.0 mi North 5.8 mph - N/A   Mostly Cloudy
3:55 AM 50.0 °F 32.0 °F 50% 29.89 in 10.0 mi Variable 4.6 mph - N/A   Mostly Cloudy
4:55 AM 50.0 °F 30.9 °F 48% 29.90 in 10.0 mi WNW 6.9 mph - N/A   Scattered Clouds
5:55 AM 48.0 °F 33.1 °F 56% 29.91 in 10.0 mi WSW 9.2 mph 17.3 mph N/A   Mostly Cloudy
6:55 AM 48.0 °F 33.1 °F 56% 29.92 in 10.0 mi WNW 3.5 mph - N/A   Scattered Clouds
7:55 AM 50.0 °F 32.0 °F 50% 29.91 in 10.0 mi WSW 16.1 mph 25.3 mph N/A   Mostly Cloudy
8:55 AM 51.1 °F 33.1 °F 50% 29.91 in 10.0 mi South 28.8 mph 35.7 mph N/A   Mostly Cloudy
9:55 AM 54.0 °F 34.0 °F 47% 29.90 in 10.0 mi SSE 11.5 mph 17.3 mph N/A   Mostly Cloudy
10:55 AM 54.0 °F 33.1 °F 45% 29.91 in 10.0 mi South 16.1 mph 24.2 mph N/A   Mostly Cloudy
11:55 AM 55.9 °F 30.9 °F 39% 29.89 in 10.0 mi ESE 10.4 mph 20.7 mph N/A   Mostly Cloudy
12:55 PM 61.0 °F 32.0 °F 34% 29.86 in 10.0 mi West 24.2 mph 34.5 mph N/A   Scattered Clouds
1:55 PM 59.0 °F 30.9 °F 35% 29.83 in 10.0 mi West 29.9 mph 41.4 mph N/A   Scattered Clouds
2:55 PM 61.0 °F 30.0 °F 31% 29.83 in 10.0 mi Variable 6.9 mph 17.3 mph N/A   Scattered Clouds
3:26 PM 62.6 °F 30.2 °F 30% 29.92 in 10.0 mi South 17.3 mph 34.5 mph N/A   Scattered Clouds
3:48 PM 60.8 °F 32.0 °F 34% 29.93 in 10.0 mi South 24.2 mph 33.4 mph N/A   Squalls
3:55 PM 61.0 °F 32.0 °F 34% 29.85 in 10.0 mi SW 18.4 mph 33.4 mph N/A   Mostly Cloudy
4:10 PM 60.8 °F 30.2 °F 31% 29.94 in 10.0 mi WSW 24.2 mph 41.4 mph N/A   Scattered Clouds
4:55 PM 59.0 °F 30.9 °F 35% 29.87 in 10.0 mi WSW 15.0 mph 31.1 mph N/A   Scattered Clouds
5:55 PM 55.9 °F 33.1 °F 42% 29.86 in 10.0 mi SSE 27.6 mph 40.3 mph N/A   Scattered Clouds
6:55 PM 54.0 °F 28.9 °F 38% 29.85 in 10.0 mi West 12.7 mph 34.5 mph N/A   Scattered Clouds
7:55 PM 52.0 °F 28.9 °F 41% 29.88 in 10.0 mi SW 8.1 mph - N/A   Scattered Clouds
8:55 PM 51.1 °F 30.0 °F 44% 29.91 in 10.0 mi West 8.1 mph - N/A   Scattered Clouds
9:55 PM 50.0 °F 30.9 °F 48% 29.91 in 10.0 mi West 12.7 mph - N/A   Scattered Clouds
10:55 PM 48.2 °F 30.2 °F 50% 29.97 in 10.0 mi WSW 17.3 mph 27.6 mph N/A   Scattered Clouds
11:55 PM 48.0 °F 28.9 °F 48% 29.90 in 10.0 mi West 18.4 mph 25.3 mph N/A   Partly Cloudy